map of OSU home
OSU - Airport
Location
City:  Columbus, Ohio, United States
Name:Ohio State University Airport
ICAO:KOSU
IATA:OSU
FAA LID:OSU

Details
Type:Airport (Part 139 Class IV)
Use:Public/Civil
Latitude:4004'47"N (40.079831)
Longitude:8304'23"W (-83.073151)
Datum:WGS 1984
Elevation:905 ft (276 m)
Variation:7.12W (WMM2015 magnetic declination)
-0.04 annual change
Runways:3
Longest:5004 × 100 ft (1525 × 30.5 m), paved

Time
Time Zone:UTC-5 (DST-4)
Local Time:

Weather
METAR:KOSU 102253Z 00000KT 4SM HZ OVC012 M04/M07 A3023 RMK AO2 SLP252 T10391067

Related Locations
Nearby:
Farthest:YAUG: 11363 mi / 18287 km
Augusta [Augusta Airport], WA, AU

Find:

   beyond  
but within

Other Information
Maps:
NOTAMs:
Links:
Sources:

  
  • flag of United States
  • flag of Ohio
  • flag of Columbus
  

Airport Diagram

Airport diagram for OSU

Airport diagram PDF

Sectional Chart

Flight Planning
at skyvector.com

Satellite Image

Google Maps Satellite view

 

Copyright © 2004-2018 Karl L. Swartz. All rights reserved.
The Great Circle Mapper name and logo are trademarks of the Great Circle Mapper.
All other trademarks mentioned herein belong to their respective owners.
Please see credits for attibutions and further copyright information.

  Follow gcmap on Facebook Follow gcmap on Twitter Follow gcmap on Google+ GCmap on LinkedIn

hCard Microformat

Geo Microformat